www.pogodaiklimat.ru

Погода и климат >> Архив погоды >> Парагвай >> Парагуари


ПОГОДА в Парагуари

  • Прогноз погоды в Парагуари
  • Монитор погоды в Парагуари

АРХИВ ПОГОДЫ в Парагуари

Время (UTC), дата Ветер
(напр.,м/с)
 
Видим.   Явления Облачность Т
(С)
Тd
(С)
f
(%)
Тe
(С)
Тes
(С)
Комфортность P
(гПа)
Po
(гПа)
Тmin
(С)
Tmax
(С)
R
(мм)
R24
(мм)
S
(см)
09 17.03 штиль 0 10 км гроза, ливневой дождь 10/6 540 м
[Cb cap As op]
+21.0 +20.9 99 +26 +26 душно 1001.0 999.7 3
12 17.03 штиль 0 10 км гроза, ливневой дождь 10/6 300 м
[Cb cap As op]
+22.0 +22.0 100 +29 +30 очень
душно
1010.5 997.0 +21.0 48
15 17.03 штиль 0 20 км {дождь} 10/10 600 м
[St]
+23.6 +22.8 95 +31 +31 очень
душно
1011.4 998.0 28
18 17.03 штиль 0 10 км слаб. дождь 10/10 540 м
[Sc]
+24.2 +23.9 98 +33 +33 очень
душно
1010.8 997.4 34
21 17.03 штиль 0 10 км сильн. морось {дождь} 10/10 540 м
[St]
+22.2 +21.9 98 +29 +29 очень
душно
1008.3 994.9 8
00 18.03 штиль 0 10 км слаб. морось 10/10 540 м
[St]
+22.0 +22.0 100 +29 +29 очень
душно
1009.5 996.0 +24.2 10
03 18.03 штиль 0 20 км 10/10 600 м
[Sc]
+22.2 +21.9 98 +29 +29 очень
душно
1010.5 997.0
09 18.03 0 н/о
12 18.03 штиль 0 10 км слаб. морось 10/10 300 м
[St]
+22.0 +22.0 100 +29 +29 очень
душно
1010.8 997.3 +21.0 80
15 18.03 штиль 0 20 км 10/10 600 м
[Sc]
+24.0 +22.5 91 +31 +31 очень
душно
1011.4 998.0
18 18.03 ЮЗ 2 20 км 8/8 1200 м
[Cu Sc]
+26.4 +21.3 74 +34 +36 очень
душно
1010.3 997.0
21 18.03 З 2 20 км ясно +28.0 +23.6 77 +38 +39 очень
душно
1008.7 995.5
00 19.03 штиль 0 20 км 5/0
[Ci]
+24.0 +22.6 92 +31 +31 очень
душно
1009.4 996.0 +28.4
03 19.03 штиль 0 20 км ясно +22.0 +20.7 92 +28 +28 душно 1010.5 997.0
06 19.03 штиль 0 20 км 4/0 2000 м
[Ac trans]
+21.0 +19.8 93 +26 +26 душно 1009.1 995.6
12 19.03 штиль 0 20 км ясно +22.0 +20.4 91 +28 +35 душно 1010.1 997.6 +20.0
15 19.03 штиль 0 20 км 4/0 2000 м
[Ac trans]
+26.4 +20.2 69 +33 +50 очень
душно
1011.3 998.0
18 19.03 штиль 0 20 км 6/6 1200 м
[Cu med, cong]
+29.8 +22.8 66 +39 +46 очень
душно
1009.7 996.6
21 19.03 штиль 0 20 км 8/8 1200 м
[Cu Sc]
+28.0 +23.6 77 +38 +38 очень
душно
1009.3 996.0
00 20.03 штиль 0 20 км 9/9 600 м
[Sc]
+25.4 +21.8 80 +33 +33 очень
душно
1009.9 996.6 +30.0
03 20.03 штиль 0 20 км 9/9 600 м
[Sc]
+23.0 +19.9 83 +30 +30 очень
душно
1010.4 997.0
09 20.03 штиль 0 20 км 9/9 600 м
[Sc]
+21.4 +20.6 95 +27 +27 душно 1010.5 997.0
12 20.03 штиль 0 20 км 10/10 600 м
[Cu Sc]
+22.0 +20.4 91 +28 +28 душно 1011.5 998.0 +21.4
15 20.03 Ю 3 20 км 10/10 600 м
[Sc]
+25.4 +21.8 80 +33 +33 очень
душно
1013.4 1000.0
18 20.03 Ю 3 20 км 10/5 600 м
[Sc Ac As]
+26.4 +19.8 67 +32 +34 очень
душно
1012.6 999.4
21 20.03 ЮЗ 3 20 км 10/5 600 м
[Sc Ac As]
+26.0 +19.8 69 +32 +32 очень
душно
1011.6 998.3
00 21.03 Ю 3 20 км 10/10 600 м
[Sc]
+23.0 +19.9 83 +30 +30 очень
душно
1013.5 1000.0 +26.4
03 21.03 Ю 3 20 км ясно +21.0 +17.8 82 +26 +26 душно 1015.0 1001.4
06 21.03 Ю 2 20 км ясно +19.0 +17.3 90 +21 +21 комфорт 1014.7 1001.0
09 21.03 Ю 2 20 км ясно +18.0 +16.3 90 +19 +19 1015.3 1001.6
12 21.03 Ю 2 20 км 5/0 1500 м
[Ac lent]
+18.0 +16.3 90 +19 +22 1016.7 1003.0 +17.0
15 21.03 Ю 2 20 км ясно +24.2 +17.4 66 +28 +45 душно 1017.5 1004.0
21 21.03 Ю 2 20 км ясно +25.0 +15.0 54 +28 +29 жарко 1015.0 1001.6
09 22.03 штиль 0 20 км ясно +17.0 +15.3 90 +17 +17 1015.8 1002.0
12 22.03 штиль 0 20 км 4/0 2000 м
[Ac trans]
+18.0 +14.5 80 +18 +23 1017.0 1003.3 +17.0
15 22.03 Ю 2 20 км ясно +25.4 +16.7 59 +29 +46 душно 1017.4 1004.0
18 22.03 З 2 20 км ясно +28.4 +16.5 48 +32 +44 душно 1016.3 1003.0
21 22.03 штиль 0 20 км ясно +28.0 +14.8 44 +30 +31 жарко 1014.3 1001.0
00 23.03 штиль 0 20 км ясно +23.0 +18.2 74 +29 +29 очень
душно
1015.1 1001.6 +28.4
03 23.03 штиль 0 20 км ясно +19.0 +15.6 81 +20 +20 1015.7 1002.0
06 23.03 штиль 0 20 км ясно +17.0 +15.3 90 +17 +17 1015.2 1001.4
09 23.03 Ю 2 20 км ясно +17.2 +15.1 87 +17 +17 1015.8 1002.0
12 23.03 штиль 0 20 км ясно +19.0 +15.6 81 +20 +27 1016.7 1003.0 +17.0
18 23.03 ЮВ 3 20 км ясно +30.0 +17.4 47 +34 +44 очень
душно
1015.2 1002.0
21 23.03 штиль 0 20 км 3/3 1200 м
[Cu hum]
+29.0 +18.0 51 +33 +34 очень
душно
1013.2 1000.0
00 24.03 штиль 0 20 км 4/0 1500 м
[Ac trans]
+25.0 +20.4 76 +31 +31 очень
душно
1014.4 1001.0 +30.0
03 24.03 штиль 0 20 км ясно +22.0 +18.8 82 +27 +27 душно 1014.5 1001.0

 

Местоположение метеостанции Парагуари (Парагвай): широта -25.63 долгота -57.13 высота над уровнем моря 116 м.

В архиве по умолчанию представлена погода в Парагуари за последнюю неделю. Архивные данные за месяц целиком и за предыдущие месяцы, начиная с января 2011 года, Вы можете получить, выбрав интересующий диапазон дат из раскрывающегося списка и нажав кнопку "Ввод!".


*Определитесь, кто Вы:
робот инопланетянин человек

Внимание! Время в таблицах - всемирное. Для получения местного времени необходимо прибавить поправку, которая равна -4 ч.

Смотрите также архив погоды в соседних городах и на ближайших метеорологических станциях:

Погода в Асунсьоне (Парагвай) (57 км)
Погода в Куйкуйо (Парагвай) (67 км)
Погода в Вильяррике (Парагвай) (71 км)
Погода в Коронель-Овьедо (Парагвай) (80 км)
Погода в Каасапе (Парагвай) (99 км)
Погода в Сан Хуан Батистута (Парагвай) (115 км)
Погода в Формосе (Аргентина) (127 км)
Погода в Сан Эстанислао (Парагвай) (130 км)
Погода в Сан-Педро (Парагвай) (175 км)
Погода в Пиларе (Парагвай) (180 км)

Пояснения к столбцам:

Ветер - указаны скорость ветра в м/с - средняя за 10 мин, порывы в срок и между сроками (в фигурных скобках) и направление, откуда дует ветер: С - северный, СВ - северо-восточный, В - восточный, ЮВ - юго-восточный, Ю - южный, ЮЗ - юго-западный, З - западный, СЗ - северо-западный.
Видимость - горизонтальная дальность видимости в метрах или километрах. При видимости от 1 до 10 км при отсутствии осадков обычно наблюдается дымка, при ухудшении видимости до 1 км и менее - туман. В сухую погоду видимость может ухудшаться дымом, пылью или мглою.
Явления - указаны атмосферные явления, наблюдавшиеся в срок или в последний час перед сроком; фигурными скобками обозначены явления, наблюдавшиеся между сроками (за 1-3 часа до срока); квадратными скобками обозначены град или гололедные отложения с указанием их диаметра в мм.
Облачность - указаны через наклонную черту общая и нижняя облачность в баллах и высота нижней границы облаков в метрах; квадратными скобками обозначены формы облаков: Ci - перистые, Cs - перисто-слоистые, Cc - перисто-кучевые, Ac - высококучевые, As - высокослоистые, Sc - слоисто-кучевые, Ns - слоисто-дождевые, Cu - кучевые, Cb - кучево-дождевые. Подробнее классификацию облаков см. в Атласе облаков (PDF).
T - Температура воздуха - температура, измеренная на высоте 2 м над землей.
Td - Температура точки росы - температура, при понижении до которой содержащийся в воздухе водяной пар достигнет насыщения.
f - Относительная влажность воздуха - влажноcть воздуха, измеренная на высоте 2 м над землей.
Te - Эффективная температура - температура, которую ощущает одетый по сезону человек в тени. Характеристика душности погоды. При расчете учитывается влияние влажности воздуха и скорости ветра на теплоощущения человека.
Tes - Эффективная температура на солнце - температура, которую ощущает человек, с поправкой на солнечный нагрев. Характеристика знойности погоды. Зависит от высоты солнца над горизонтом, облачности и скорости ветра. Ночью, в пасмурную погоду, а также при ветре 12 м/с и более поправка равна нулю.
P - Атмосферное давление - приведенное к уровню моря атмосферное давление.
Po - Атмосферное давление - измеренное на уровне метеостанции атмосферное давление.
Tmin - Минимальная температура - минимум температуры воздуха на высоте 2 м над землей.
Tmax - Максимальная температура - максимум температуры воздуха на высоте 2 м над землей.
R - Количество осадков - Количество выпавших осадков за период времени, мм. При наведении курсора мыши на число - период времени, за который выпало указанное количество осадков.
R24 - Количество осадков - Количество выпавших осадков за 24 часа, мм.
S - Снежный покров - Высота снежного покрова, см. При наведении курсора мыши на число - состояние снежного покрова и степень покрытия местности в баллах.